Location: Ecklingerode
(51.5036°N, 10.3122°E)
Time: 01:43:26
(UTC+00:00)

Ariane Rocket - Pass Details

Date: 29 October 2020
Orbit: 759 x 770 km, 98.7° (Epoch: 23 November)

Event Time Altitude Azimuth Distance (km) Brightness Sun altitude
Exits shadow 19:33:54 38° 309° (NW) 1,177 4.3 -33.9°
Drops below altitude 10° 19:37:19 10° 336° (NNW) 2,324 6.0 -34.4°
Sets 19:39:43 0° 342° (NNW) 3,255 6.8 -34.7°
